AO-07 1 07530U 74089B 14191.84923912 -.00000048 00000-0 -28352-4 0 110 2 07530 101.4730 172.9032 0011453 248.0332 226.8986 12.53605878814484 FO-29 1 24278U 96046B 14191.88780103 -.00000037 00000-0 18451-6 0 4169 2 24278 098.5120 202.4778 0349709 236.0306 194.5347 13.53026462883871 SO-33 1 25509U 98061B 14191.88798095 .00000275 00000-0 41636-4 0 7902 2 25509 031.4335 026.0907 0349471 321.9956 167.3687 14.29556378820546 RS-22 1 27939U 03042A 14191.72472758 .00001093 00000-0 21096-3 0 6561 2 27939 097.8112 004.7017 0014271 036.0097 324.2067 14.65242208576173 VO-52 1 28650U 05017B 14191.12276865 .00002959 00000-0 34588-3 0 7878 2 28650 097.5594 194.9419 0026663 083.5702 276.8549 14.85564527496633 HO-68 1 36122U 09072B 14191.74806411 -.00000043 00000-0 00000 0 0 7534 2 36122 100.2476 242.9061 0007379 181.7686 178.3393 13.16316665219535 AO-73 1 39444U 13066AE 14191.23671537 .00002492 00000-0 33847-3 0 1908 2 39444 097.7700 261.1043 0062148 167.2845 193.0070 14.78380675 32876 EO-79 1 40025U 14033R 14191.66279843 .00002039 00000-0 24379-3 0 547 2 40025 097.9798 086.3361 0012527 217.4967 142.5400 14.85240893 3072 UO-11 1 14781U 84021B 14191.26391234 .00000878 00000-0 11810-3 0 5412 2 14781 097.8508 250.9403 0010212 106.3652 253.8684 14.81643464631380 AO-16 1 20439U 90005D 14191.78158866 .00000126 00000-0 62362-4 0 642 2 20439 098.5072 128.6743 0012125 091.1533 328.1531 14.32367135277863 LO-19 1 20442U 90005G 14191.82257763 .00000115 00000-0 58134-4 0 29 2 20442 098.4780 129.2980 0013005 080.9709 279.2947 14.32568821278066 AO-27 1 22825U 93061C 14191.84506321 .00000083 00000-0 49614-4 0 7114 2 22825 098.6628 137.8009 0007763 221.8214 196.7112 14.29728669 84161 IO-26 1 22826U 93061D 14191.40424191 .00000121 00000-0 63876-4 0 4678 2 22826 098.6571 137.5779 0008401 215.6070 144.4553 14.30029945 84231 GO-32 1 25397U 98043D 14191.84790795 .00000043 00000-0 37566-4 0 3908 2 25397 098.4701 148.9552 0000849 174.1661 238.4406 14.23450249831236 NO-44 1 26931U 01043C 14191.47318209 .00000097 00000-0 69568-4 0 6451 2 26931 067.0533 338.4075 0006726 281.9863 078.0484 14.30129119666937 SO-50 1 27607U 02058C 14191.15574452 .00001150 00000-0 19272-3 0 4419 2 27607 064.5564 162.3286 0050389 003.9811 356.1681 14.73814397620868 CO-55 1 27844U 03031E 14191.07337462 .00000259 00000-0 13818-3 0 9675 2 27844 098.6977 199.5154 0009437 202.1345 195.4438 14.21524006571830 CO-57 1 27848U 03031J 14191.01717020 .00000216 00000-0 11942-3 0 9078 2 27848 098.7071 199.1834 0009190 209.3398 210.3047 14.21208878571743 AO-51 1 28375U 04025K 14191.80810062 .00000146 00000-0 56766-4 0 8834 2 28375 098.2512 137.9150 0081754 280.9989 078.2013 14.41401566527300 CP3 1 31129U 07012N 14191.82546358 .00000734 00000-0 17145-3 0 7929 2 31129 097.9352 168.6120 0096959 297.6031 128.9140 14.54745500383478 CO-65 1 32785U 08021C 14191.81060353 .00002391 00000-0 28333-3 0 9984 2 32785 097.6977 242.3297 0015371 110.6317 314.9135 14.85368522335536 PRISM 1 33493U 09002B 14191.79272040 .00004332 00000-0 45890-3 0 891 2 33493 098.2507 008.4488 0017931 012.3761 347.7926 14.89579576295698 SOHLA-1 1 33496U 09002E 14191.81104373 .00000406 00000-0 74724-4 0 3980 2 33496 098.1729 312.8021 0007143 158.8329 352.5302 14.70834526292981 TISAT-1 1 36799U 10035E 14191.79047142 .00003158 00000-0 36941-3 0 3518 2 36799 098.0170 283.9643 0012213 241.3311 118.6687 14.85764818216222 STUDSAT 1 36801U 10035G 14190.80454005 .00016773 00000-0 14564-2 0 8511 2 36801 098.0379 291.4604 0008410 210.8934 261.8119 14.97075726216513 ALMASAT-1 1 38078U 12006B 14191.88929744 .00027220 00000-0 55974-3 0 797 2 38078 069.4681 002.0635 0589031 000.2068 145.6700 14.51392799125078 XATCOBEO 1 38082U 12006F 14191.66630400 .00318343 32830-4 13656-2 0 3888 2 38082 069.4355 249.2692 0174791 297.1386 210.6757 15.65440994128055 CUBEBUG-1 1 39153U 13018D 14191.78578416 .00001562 00000-0 22465-3 0 2838 2 39153 098.0416 272.0408 0016704 275.9009 084.0329 14.77770528 65043 ESTCUBE-1 1 39161U 13021C 14191.70570207 .00001251 00000-0 21664-3 0 2737 2 39161 098.0962 272.4290 0009203 330.0004 030.0681 14.70043236 63058 DUCHIFAT-1 1 40021U 14033M 14191.79613980 .00002747 00000-0 32531-3 0 557 2 40021 097.9817 086.4775 0012906 218.4336 141.5968 14.85352591 3080 NANOSATCBR1 1 40024U 14033Q 14191.66264126 .00002488 00000-0 29602-3 0 524 2 40024 097.9807 086.3365 0012535 217.5892 142.4465 14.85259467 3069 DTUSAT-2 1 40030U 14033W 14191.66795387 .00001969 00000-0 23779-3 0 543 2 40030 097.9802 086.3272 0011612 209.3408 150.7194 14.84874082 3072 ANTELSAT 1 40034U 14033AA 14191.65719889 .00001702 00000-0 27602-3 0 486 2 40034 097.9776 085.8721 0062117 131.1788 229.4817 14.71209095 3054 MET-2/21 1 22782U 93055A 14191.85792259 .00000068 00000-0 47989-4 0 1050 2 22782 082.5504 154.5244 0022114 194.9915 224.5819 13.83739410 53390 OKEAN-4 1 23317U 94066A 14191.85986470 .00000854 00000-0 95569-4 0 5849 2 23317 082.5370 045.7386 0020888 025.1836 046.5039 14.85580272 66626 NOAA-14 1 23455U 94089A 14191.50664832 .00000081 00000-0 65608-4 0 8176 2 23455 098.7780 274.5291 0008754 339.0419 141.9761 14.13978148 7241 NOAA-15 1 25338U 98030A 14191.50867152 .00000171 00000-0 91100-4 0 2549 2 25338 098.7532 185.3228 0011798 083.3689 077.0955 14.25442657840161 RESURS 1 25394U 98043A 14191.48420235 .00000004 00000-0 19710-4 0 7007 2 25394 098.4144 154.8766 0001835 151.0441 317.0162 14.24396193831638 FENGYUN1 1 25730U 99025A 14190.93753115 .00001296 00000-0 73020-3 0 1884 2 25730 098.9137 151.8899 0026464 048.7618 357.7711 14.11955244780735 OKEAN-0 1 25860U 99039A 14191.51503310 .00000612 00000-0 97909-4 0 2984 2 25860 098.0442 155.2435 0001272 082.9438 030.2078 14.75310669805590 NOAA-16 1 26536U 00055A 14191.44837773 .00000012 00000-0 30594-4 0 7515 2 26536 098.9892 251.9122 0011627 117.7723 242.4629 14.13029297711406 NOAA-17 1 27453U 02032A 14191.43854732 .00000055 00000-0 41138-4 0 6482 2 27453 098.3145 189.9276 0012995 105.9622 254.2991 14.24756609625993 NOAA-18 1 28654U 05018A 14191.49372375 .00000194 00000-0 13091-3 0 1516 2 28654 099.1494 171.4629 0014199 194.4379 272.6155 14.12037144470853 NOAA-19 1 33591U 09005A 14191.46227855 .00000118 00000-0 89078-4 0 3002 2 33591 098.9454 136.4311 0014954 057.1886 076.3426 14.11735496279275 HUBBLE 1 20580U 90037B 14191.47005300 .00002294 00000-0 14372-3 0 526 2 20580 028.4690 244.0741 0003036 167.2450 324.8290 15.05527249128239 ISS 1 25544U 98067A 14191.89829819 .00012400 00000-0 22062-3 0 6742 2 25544 051.6486 342.0263 0003270 234.6440 274.4871 15.50546565895004 CO-58 1 28895U 05043F 14191.48140064 .00000708 00000-0 15008-3 0 8156 2 28895 097.8337 032.1387 0015996 298.8622 061.0975 14.61930908463655 FALCON 1 30776U 07006E 14190.76959725 .00009497 00000-0 47756-3 0 9071 2 30776 035.4304 333.9130 0001171 156.6074 340.0281 15.16560628404168 MAST 1 31126U 07012K 14190.96226851 .00000545 00000-0 12929-3 0 897 2 31126 097.9155 170.6703 0090620 283.3670 142.1593 14.55315632383702 CAPE1 1 31130U 07012P 14191.46357044 .00000743 00000-0 17432-3 0 969 2 31130 097.9364 167.8273 0097470 300.1388 059.0177 14.54495161383195 COMPASS 1 32787U 08021E 14191.77026207 .00003323 00000-0 36687-3 0 9809 2 32787 097.7007 244.6253 0015442 103.0911 257.2030 14.88028590335696 AAUSAT2 1 32788U 08021F 14191.76313117 .00004578 00000-0 49436-3 0 9661 2 32788 097.7017 245.6343 0014996 101.6650 258.6251 14.88746903335758 DO-64 1 32789U 08021G 14191.80042854 .00008243 00000-0 78378-3 0 69 2 32789 097.7208 252.3998 0013792 089.0997 336.7889 14.93636185336020 CO-66 1 32791U 08021J 14191.14232171 .00003618 00000-0 41230-3 0 9621 2 32791 097.6999 242.7332 0016095 108.4922 251.8045 14.86660040335464 RS-30 1 32953U 08025A 14191.73279751 .00000010 00000-0 00000 0 0 861 2 32953 082.4995 186.5692 0020364 103.4752 256.8597 12.43048856278184 METEOR-M 1 35865U 09049A 14191.72804185 -.00000001 00000-0 18797-4 0 7019 2 35865 098.5480 238.4263 0003114 042.4706 317.6711 14.21925233249680 RS-38 1 35869U 09049E 14191.71083983 .00000036 00000-0 35417-4 0 6224 2 35869 098.5412 238.1983 0005010 040.9942 072.2270 14.22217078249717 JUGNU 1 37839U 11058B 14191.21778124 .00000394 00000-0 68294-4 0 6528 2 37839 019.9620 115.3526 0018888 237.9196 248.5544 14.12318678141810 SRMSAT 1 37841U 11058D 14191.86561095 .00000371 00000-0 59445-4 0 6566 2 37841 019.9722 131.2224 0011851 183.5448 214.2947 14.10359254141705 RAX-2 1 37853U 11061D 14191.72933153 .00006779 00000-0 46455-3 0 8551 2 37853 101.7125 232.6025 0215430 348.7039 121.4789 14.89727041146167 AUBIESAT 1 37854U 11061E 14191.08128183 .00008514 00000-0 56298-3 0 8364 2 37854 101.7168 233.5850 0213378 347.6713 070.0896 14.91061853146126 HRBE 1 37855U 11061F 14191.14708706 .00007771 00000-0 52085-3 0 8440 2 37855 101.7169 233.0103 0215557 348.8194 064.3643 14.90361502146108 RS-39 1 38051U 11062C 14191.79142238 .00102237 00000-0 10732-2 0 7100 2 38051 051.6257 103.7146 0002552 251.3075 146.9214 15.63541112137809 E-STAR 1 38079U 12006C 14189.44656301 .00087302 50595-5 95857-3 0 9039 2 38079 069.4509 295.4553 0360641 323.9785 149.9819 15.11748193126675 GOLIAT 1 38085U 12006J 14191.69046693 .00075949 46221-5 88300-3 0 1899 2 38085 069.4566 297.1582 0383400 324.6261 032.9993 15.05999851126813 HORYU-2 1 38340U 12025D 14191.32745883 .00002246 00000-0 36072-3 0 9045 2 38340 098.2623 148.9180 0013394 100.4094 259.8672 14.72594577115208 RS-40 1 38735U 12041C 14191.63524425 .00000024 00000-0 10000-3 0 6189 2 38735 082.4766 272.9218 0016863 199.7029 160.3403 12.42560645 88494 PROITERES 1 38756U 12047B 14191.79901427 .00000625 00000-0 10078-3 0 36 2 38756 098.2289 280.4801 0011257 311.0881 048.9354 14.75002563 98654 BEESAT-3 1 39134U 13015E 14191.76791940 .00007207 00000-0 50576-3 0 6370 2 39134 064.8647 063.8976 0029664 303.7021 056.1290 15.05515173 67211 BEESAT-2 1 39136U 13015G 14191.90808902 .00006241 00000-0 44723-3 0 6212 2 39136 064.8666 064.0064 0029601 303.5204 056.3090 15.04876182 67227 LO-75 1 39382U 13064C 14191.39469969 .00102480 00000-0 19077-2 0 3052 2 39382 040.4965 314.5196 0019541 044.2364 316.0605 15.47521758 35652 ZACUBE-1 1 39417U 13066B 14191.32287713 .00002660 00000-0 36244-3 0 3450 2 39417 097.7731 261.1481 0062349 166.9576 193.3283 14.78167532 34119 TRITON-1 1 39427U 13066M 14191.19781401 .00001704 00000-0 29262-3 0 1996 2 39427 097.7615 256.3803 0117884 176.7908 183.4169 14.65438094 33761 DELFIN3XT 1 39428U 13066N 14191.76909283 .00002930 00000-0 51137-3 0 2012 2 39428 097.7599 256.0873 0128569 176.9079 183.2997 14.63373162 33781 GOMX-1 1 39430U 13066Q 14191.72805251 .00001671 00000-0 32427-3 0 6275 2 39430 097.7532 253.8076 0156713 183.2706 176.7496 14.56873759 33646 MO-76 1 39436U 13066W 14191.73466491 .00017255 00000-0 17538-2 0 2637 2 39436 097.7763 264.9914 0026855 167.5272 192.6696 14.90584985 34387 LO-74 1 39440U 13066AA 14191.02321076 .00001869 00000-0 28201-3 0 1973 2 39440 097.7695 259.0198 0084047 170.8533 189.4289 14.73105066 33942 PUCPSAT-1 1 39442U 13066AC 14191.26192325 .00003075 00000-0 35272-3 0 1959 2 39442 097.7778 263.9362 0034917 167.5977 192.6204 14.86170854 33055 LO-78 1 39569U 98067EN 14191.77568358 .00614778 16700-3 15638-2 0 4076 2 39569 051.6374 324.6048 0009022 315.7776 188.2274 15.94771005 20773 SHINAISAT 1 39572U 14009A 14191.77062099 .00067086 00000-0 51502-3 0 1801 2 39572 065.0084 320.9755 0019024 286.6680 073.2399 15.71436354 20817 OPUSAT 1 39575U 14009D 14191.85290008 .00697612 24320-3 10422-2 0 2451 2 39575 064.9907 312.4622 0020131 291.3259 068.5773 16.04091363 20982 TEIKYOSAT 1 39576U 14009E 14191.17336727 .00090862 00000-0 58030-3 0 1824 2 39576 064.9987 321.3551 0018683 296.7840 063.1581 15.75634673 20752 CO-77 1 39577U 14009F 14191.42027467 .00199659 20560-4 78625-3 0 1970 2 39577 065.0054 317.2530 0018573 289.8379 070.0781 15.86426939 20855 STARS-II 1 39579U 14009H 14116.06110564 .20186783 77451-5 52661-3 0 1329 2 39579 064.9886 219.0071 0013010 293.8065 069.6132 16.44611049 9028 SPROUT 1 39770U 14029E 14191.08041024 .00001086 00000-0 14127-3 0 609 2 39770 097.8716 287.8827 0008750 233.8687 126.1701 14.82636902 6932 POPSAT-HIP1 1 40028U 14033U 14191.79978117 .00001914 00000-0 23014-3 0 551 2 40028 097.9852 086.4776 0013525 214.1592 145.8762 14.85081993 3086 EO-80 1 40032U 14033Y 14191.66824380 .00001940 00000-0 23449-3 0 544 2 40032 097.9808 086.3285 0012016 209.1240 150.9354 14.84851971 3077 VELOX-1 1 40057U 14034E 14191.81334084 .00002298 00000-0 35776-3 0 415 2 40057 098.2519 259.1428 0010367 245.1490 114.8647 14.73956287 1560 OBJECT C 1 40071U 14037C 14191.82540802 -.00000222 00000-0 -21970-4 0 107 2 40071 098.4040 243.5240 0007266 248.4855 111.5565 14.79492373 302 OBJECT G 1 40075U 14037G 14191.82422499 -.00003687 00000-0 -47620-3 0 121 2 40075 098.4033 243.5283 0004132 270.1457 089.9292 14.80344779 307 OBJECT H 1 40076U 14037H 14191.82417973 -.00000362 00000-0 -39849-4 0 91 2 40076 098.3972 243.5179 0004261 273.8749 086.1949 14.80382331 304 /EX